15min,AgWx,beryljct,423,01DEC2018:00:00:00,33.0,12.87,32.5,31.9,32.0,32.7,31.0,85,88,82,0.526,28.1,28.9,26.4,1.403,0.6,299,25,1.6,-0.00006,-0.00008,38.0,39.9,22,0,0,35.7,8.78,0.00,0.00
15min,AgWx,beryljct,423,01DEC2018:00:15:00,31.9,12.85,30.8,29.9,30.5,32.0,29.4,86,88,82,0.472,26.8,28.5,24.9,3.705,2.6,304,18,4.8,-0.00001,-0.00000,38.0,39.9,22,0,0,35.5,8.78,0.00,0.00
15min,AgWx,beryljct,423,01DEC2018:00:30:00,30.9,12.84,30.0,29.2,29.6,30.1,29.1,82,87,78,0.443,24.7,26.4,23.2,3.858,3.7,324,12,5.2,0.00002,0.00004,37.9,39.9,22,0,0,35.5,8.78,0.00,0.00
15min,AgWx,beryljct,423,01DEC2018:00:45:00,30.1,12.83,28.8,27.1,28.6,29.8,27.0,84,86,81,0.430,24.2,25.5,22.9,2.17,3.1,341,6.7,4.4,0.00001,0.00002,37.8,39.8,22,0,0,35.7,8.78,0.00,0.00
15min,AgWx,beryljct,423,01DEC2018:01:00:00,29.4,12.82,29.5,30.4,28.6,30.4,27.1,85,88,81,0.460,24.6,25.3,23.6,4.604,4.1,298,13,5.2,0.00002,0.00003,37.8,39.8,22,0,0,35.7,8.78,0.00,0.00
15min,AgWx,beryljct,423,01DEC2018:01:15:00,29.1,12.79,30.4,28.5,30.1,31.0,28.5,78,80,76,0.424,24.1,25.1,23.1,5.459,4.8,297,3.1,5.5,0.00005,0.00007,37.7,39.7,22,0,0,35.6,8.78,0.00,0.00
15min,AgWx,beryljct,423,01DEC2018:01:30:00,28.6,12.8,28.3,28.3,27.8,28.4,27.4,82,83,80,0.432,23.1,23.6,22.8,5.02,5.3,294,4.6,5.9,0.00004,0.00005,37.6,39.7,22,0,0,35.7,8.78,0.00,0.00
15min,AgWx,beryljct,423,01DEC2018:01:45:00,28.5,12.78,30.2,30.1,29.5,30.3,28.2,79,83,76,0.427,23.9,24.5,23.3,3.486,4.9,282,3.6,6.1,0.00005,0.00007,37.6,39.7,22,0,0,35.8,8.78,0.00,0.00
15min,AgWx,beryljct,423,01DEC2018:02:00:00,28.4,12.77,30.2,29.7,29.7,30.5,28.2,76,83,72,0.403,23.1,24.5,21.9,2.653,2.2,332,35,3.7,0.00001,0.00002,37.5,39.6,22,0,0,35.5,8.78,0.00,0.00
15min,AgWx,beryljct,423,01DEC2018:02:15:00,28.3,12.77,30.4,30.2,29.8,30.2,29.5,76,77,73,0.419,23.0,23.5,22.1,3.398,2.8,343,7.7,3.7,0.00003,0.00005,37.4,39.6,22,0,0,35.5,8.78,0.00,0.00
15min,AgWx,beryljct,423,01DEC2018:02:30:00,28.1,12.62,29.3,27.4,29.1,30.2,27.4,75,80,73,0.383,22.2,24.1,20.6,2.631,3.9,304,9.7,4.6,0.00005,0.00007,37.3,39.6,22,0,0,35.6,8.78,0.00,0.00
15min,AgWx,beryljct,423,01DEC2018:02:45:00,27.6,12.74,28.4,27.9,27.8,28.2,27.1,76,77,74,0.394,21.1,21.6,20.5,0,2.3,291,18,2.9,0.00001,0.00003,37.3,39.5,22,0,0,35.8,8.78,0.00,0.00
15min,AgWx,beryljct,423,01DEC2018:03:00:00,27.2,12.75,28.7,29.1,28.0,29.1,27.4,77,81,73,0.395,21.7,23.3,21.0,0,1.9,188,55,3.7,0.00000,0.00001,37.2,39.5,22,0,0,35.7,8.78,0.00,0.00
15min,AgWx,beryljct,423,01DEC2018:03:15:00,26.8,12.74,28.5,27.9,28.1,29.4,27.0,76,79,72,0.401,21.3,22.0,20.7,0,0.7,139,33,2.9,-0.00004,-0.00005,37.1,39.5,22,0,0,35.7,8.78,0.00,0.00
15min,AgWx,beryljct,423,01DEC2018:03:30:00,26.3,12.72,28.4,27.5,27.9,28.6,27.5,75,77,73,0.384,21.1,21.7,20.6,1.008,0.2,120,0.9,1.2,-0.00006,-0.00010,37.0,39.4,22,0,0,35.5,8.78,0.00,0.00
15min,AgWx,beryljct,423,01DEC2018:03:45:00,25.9,12.7,27.5,25.9,27.1,27.6,25.9,76,79,75,0.377,20.6,20.8,20.2,1.863,1.9,55,76,2.5,0.00000,0.00001,37.0,39.4,22,0,0,35.4,8.78,0.00,0.00
15min,AgWx,beryljct,423,01DEC2018:04:00:00,25.5,12.56,25.3,24.8,24.9,25.8,23.9,82,84,79,0.370,20.1,21.1,19.1,1.841,2.6,64,44,4.4,0.00001,0.00001,36.9,39.4,22,0,0,35.7,8.78,0.00,0.00
15min,AgWx,beryljct,423,01DEC2018:04:15:00,25.1,12.7,24.5,23.6,24.2,25.0,23.4,84,87,82,0.375,20.1,20.5,19.7,1.951,2.3,166,47,4.9,-0.00001,-0.00000,36.9,39.3,22,0,0,35.7,8.78,0.00,0.00
15min,AgWx,beryljct,423,01DEC2018:04:30:00,24.7,12.7,24.6,25.4,23.9,25.4,22.9,87,89,85,0.400,20.5,22.0,19.3,0.745,2.0,165,23,4.0,-0.00002,-0.00002,36.8,39.3,22,0,0,35.8,8.78,0.00,0.00
15min,AgWx,beryljct,423,01DEC2018:04:45:00,24.8,12.7,27.5,27.4,26.7,27.8,25.4,78,85,73,0.381,20.8,22.0,19.8,0.395,1.6,168,37,3.6,-0.00001,-0.00001,36.7,39.3,22,0,0,35.6,8.78,0.00,0.00
15min,AgWx,beryljct,423,01DEC2018:05:00:00,24.8,12.69,24.3,23.3,24.3,27.5,23.2,83,88,74,0.372,19.9,20.7,19.3,0.044,2.0,99,10,3.8,-0.00001,-0.00001,36.7,39.2,22,0,0,35.6,8.78,0.00,0.00
15min,AgWx,beryljct,423,01DEC2018:05:15:00,24.4,12.7,24.0,23.4,23.4,23.8,23.0,88,89,87,0.379,20.3,20.8,19.9,0,0.9,101,0.1,1.9,-0.00004,-0.00005,36.6,39.2,22,0,0,35.4,8.78,0.00,0.00
15min,AgWx,beryljct,423,01DEC2018:05:30:00,24.1,12.54,23.4,22.7,22.9,23.4,22.7,89,89,88,0.371,20.1,20.4,19.8,1.535,0.9,141,18,2.0,-0.00004,-0.00005,36.6,39.2,22,0,0,35.7,8.78,0.00,0.00
15min,AgWx,beryljct,423,01DEC2018:05:45:00,23.8,12.69,23.6,22.7,23.0,23.5,22.7,89,90,87,0.365,20.2,20.6,19.6,1.776,1.4,158,4.1,2.8,-0.00003,-0.00004,36.5,39.1,22,0,0,35.8,8.78,0.00,0.00
15min,AgWx,beryljct,423,01DEC2018:06:00:00,23.5,12.68,23.6,23.3,23.0,23.3,22.7,89,90,88,0.377,20.2,20.6,19.7,0.044,1.5,160,0.1,2.3,-0.00003,-0.00003,36.4,39.1,22,0,0,35.7,8.78,0.00,0.00
15min,AgWx,beryljct,423,01DEC2018:06:15:00,23.2,12.65,23.3,22.6,22.8,23.4,22.3,89,90,88,0.366,19.9,20.5,19.4,0.395,0.4,164,9.7,1.5,-0.00005,-0.00008,36.4,39.1,22,0,0,35.8,8.78,0.00,0.00
15min,AgWx,beryljct,423,01DEC2018:06:30:00,22.8,12.68,22.7,21.5,22.3,23.1,21.5,88,90,87,0.351,19.3,20.3,18.5,0,0.5,203,0.1,1.4,-0.00005,-0.00007,36.3,39.0,22,0,0,35.8,8.78,0.00,0.00
15min,AgWx,beryljct,423,01DEC2018:06:45:00,22.0,12.68,21.8,21.1,21.3,22.0,20.5,89,91,88,0.341,18.5,19.6,17.5,0,0.3,195,6.9,2.4,-0.00005,-0.00008,36.3,39.0,22,0,0,35.6,8.78,0.00,0.00
15min,AgWx,beryljct,423,01DEC2018:07:00:00,21.5,12.66,22.4,21.8,21.7,22.4,21.0,89,90,88,0.356,18.9,19.9,18.0,0,0.2,181,0.0,1.0,0.00001,0.00001,36.2,39.0,22,0,0,35.7,8.78,0.00,0.00
15min,AgWx,beryljct,423,01DEC2018:07:15:00,21.2,12.65,22.8,22.3,22.1,23.0,21.6,85,89,81,0.340,18.3,19.3,17.2,0.965,0.4,181,0.1,1.5,0.00001,0.00002,36.1,38.9,22,0,0,35.5,8.78,0.00,0.00
15min,AgWx,beryljct,423,01DEC2018:07:30:00,21.2,12.64,24.2,21.4,23.7,25.1,21.4,78,84,74,0.332,17.7,18.8,16.5,4.165,2.5,210,35,5.1,0.00008,0.00014,36.1,38.9,22,2,0,35.5,8.78,0.00,0.00
15min,AgWx,beryljct,423,01DEC2018:07:45:00,21.5,12.75,21.5,21.2,21.0,21.4,20.8,88,89,85,0.347,18.0,18.5,17.5,3.157,3.4,152,12,4.8,0.00009,0.00013,36.0,38.9,22,13,0,35.7,8.78,0.00,0.00
15min,AgWx,beryljct,423,01DEC2018:08:00:00,21.9,13.16,22.0,21.7,21.5,21.7,21.2,88,89,88,0.353,18.6,18.8,18.4,0,1.6,150,19,3.3,0.00019,0.00022,36.0,38.8,22,67,0,35.9,8.78,0.00,0.00
15min,AgWx,beryljct,423,01DEC2018:08:15:00,22.9,13.69,22.9,22.3,22.3,23.1,21.7,88,89,86,0.359,19.3,20.3,18.9,0,0.1,123,0.0,0.7,0.00029,0.00031,35.9,38.8,22,116,0,36.0,8.78,0.00,0.00
15min,AgWx,beryljct,423,01DEC2018:08:30:00,24.7,14.41,23.5,23.7,23.0,23.8,22.3,88,89,87,0.378,19.9,20.4,19.3,0,0.1,123,0.0,0.8,0.00041,0.00044,35.8,38.8,22,159,0,38.8,8.78,0.00,0.00
15min,AgWx,beryljct,423,01DEC2018:08:45:00,26.9,14.28,25.1,25.2,24.5,25.5,23.7,86,87,85,0.395,21.0,22.0,20.4,2.214,1.8,119,5.3,3.6,0.00057,0.00063,35.8,38.7,22,218,0,40.8,8.77,0.00,0.00
15min,AgWx,beryljct,423,01DEC2018:09:00:00,28.3,14.78,26.2,26.2,25.7,26.2,25.2,85,87,84,0.404,21.9,22.3,21.5,0.088,1.4,142,3.6,2.6,0.00055,0.00061,35.8,38.7,22,185,0,38.7,8.78,0.00,0.00
15min,AgWx,beryljct,423,01DEC2018:09:15:00,29.6,14.77,27.4,27.2,26.8,27.2,26.2,83,84,82,0.412,22.4,23.0,21.9,1.732,1.0,106,6.6,2.7,0.00079,0.00086,35.7,38.7,22,266,0,43.5,8.77,0.00,0.00
15min,AgWx,beryljct,423,01DEC2018:09:30:00,30.8,14.84,28.9,29.8,28.2,29.8,27.3,79,83,75,0.423,22.6,23.2,22.0,0,0.9,122,2.3,2.4,0.00081,0.00088,35.6,38.6,22,248,0,43.3,8.77,0.00,0.00
15min,AgWx,beryljct,423,01DEC2018:09:45:00,32.3,14.82,29.4,29.3,29.1,29.8,28.8,74,76,72,0.408,22.0,22.9,20.9,0,0.3,104,9.3,1.8,0.00109,0.00117,35.6,38.6,22,331,0,49.0,8.77,0.00,0.00
15min,AgWx,beryljct,423,01DEC2018:10:00:00,34.4,14.71,30.3,30.3,29.9,30.6,29.2,71,74,68,0.401,21.4,22.3,20.7,1.82,0.5,91,5.6,1.8,0.00123,0.00133,35.5,38.6,22,367,0,51.8,8.77,0.00,0.00
15min,AgWx,beryljct,423,01DEC2018:10:15:00,36.2,14.73,31.6,32.0,31.1,32.0,30.3,69,71,66,0.410,22.1,23.2,21.3,2.85,1.8,81,17,3.6,0.00134,0.00149,35.5,38.5,22,394,0,49.9,8.77,0.00,0.00
15min,AgWx,beryljct,423,01DEC2018:10:30:00,37.3,14.68,32.9,33.2,32.4,33.2,31.9,67,70,64,0.426,22.6,24.1,21.7,2.696,2.5,112,16,4.1,0.00150,0.00169,35.5,38.5,22,433,0,50.2,8.77,0.00,0.00
15min,AgWx,beryljct,423,01DEC2018:10:45:00,38.1,14.68,34.1,34.3,33.6,34.3,33.0,63,69,58,0.397,22.5,24.2,21.2,5.196,3.6,139,18,6.1,0.00163,0.00188,35.4,38.5,22,460,0,51.2,8.77,0.00,0.00
15min,AgWx,beryljct,423,01DEC2018:11:00:00,38.4,14.37,34.8,34.9,34.4,34.9,34.0,64,68,59,0.427,23.3,25.0,21.6,3.354,5.0,145,12,7.0,0.00157,0.00186,35.4,38.4,22,431,0,46.3,8.77,0.00,0.00
15min,AgWx,beryljct,423,01DEC2018:11:15:00,38.8,14.33,36.7,37.0,36.2,37.1,34.9,56,63,52,0.406,21.9,23.6,20.8,4.187,5.4,146,14,8.6,0.00188,0.00225,35.4,38.4,22,497,0,48.2,8.77,0.00,0.00
15min,AgWx,beryljct,423,01DEC2018:11:30:00,39.8,14.34,38.5,38.4,38.0,38.6,37.0,47,57,42,0.331,19.5,23.1,16.9,4.889,5.7,173,17,10.9,0.00207,0.00254,35.3,38.4,22,510,0,49.4,8.77,0.00,0.00
15min,AgWx,beryljct,423,01DEC2018:11:45:00,40.7,14.31,39.9,39.9,39.4,40.2,38.5,41,44,38,0.346,17.5,20.0,15.3,4.757,7.6,194,15,12.4,0.00224,0.00287,35.3,38.3,22,521,0,48.4,8.77,0.00,0.00
15min,AgWx,beryljct,423,01DEC2018:12:00:00,41.6,14.17,40.7,40.5,40.3,40.7,39.8,39,43,36,0.324,17.1,19.7,15.2,9.05,8.5,209,16,13.6,0.00235,0.00305,35.3,38.3,22,530,0,48.5,8.77,0.00,0.00
15min,AgWx,beryljct,423,01DEC2018:12:15:00,42.2,14.18,40.7,40.4,40.4,40.6,40.1,38,40,35,0.312,16.6,18.0,15.0,3.946,8.2,203,13,12.1,0.00238,0.00308,35.3,38.3,22,535,0,48.2,8.77,0.00,0.00
15min,AgWx,beryljct,423,01DEC2018:12:30:00,42.7,14.14,41.0,41.5,40.6,41.5,40.2,38,41,34,0.338,16.7,18.9,14.5,7.3,6.9,179,15,11.6,0.00237,0.00301,35.3,38.2,22,536,0,49.0,8.77,0.00,0.00
15min,AgWx,beryljct,423,01DEC2018:12:45:00,43.3,14.14,41.5,41.9,41.2,41.9,40.7,38,44,34,0.368,17.6,20.7,14.5,9.34,7.4,183,32,13.4,0.00239,0.00306,35.3,38.2,22,533,0,48.7,8.77,0.00,0.00
15min,AgWx,beryljct,423,01DEC2018:13:00:00,43.7,14.13,41.9,42.1,41.6,42.2,41.0,39,45,35,0.348,18.4,21.7,15.4,7.519,8.8,189,20,16.6,0.00241,0.00315,35.3,38.2,22,527,0,47.7,8.76,0.00,0.00
15min,AgWx,beryljct,423,01DEC2018:13:15:00,44.2,14.13,42.7,42.9,42.3,42.9,41.5,37,41,33,0.339,17.9,20.5,14.9,7.607,7.3,200,18,12.0,0.00240,0.00309,35.5,38.2,22,518,0,48.1,8.76,0.00,0.00
15min,AgWx,beryljct,423,01DEC2018:13:30:00,44.7,14.18,43.0,42.7,42.7,43.3,42.2,36,39,34,0.331,17.6,19.9,16.2,9.51,10.7,205,16,15.1,0.00247,0.00335,35.7,38.1,22,506,0,47.4,8.76,0.00,0.00
15min,AgWx,beryljct,423,01DEC2018:13:45:00,45.0,14.09,42.7,42.2,42.5,43.0,42.0,39,42,35,0.368,19.2,21.5,17.0,13.28,11.9,205,15,17.0,0.00240,0.00328,35.9,38.1,22,492,0,46.2,8.76,0.00,0.00
15min,AgWx,beryljct,423,01DEC2018:14:00:00,44.9,14.1,42.1,41.5,41.9,42.4,41.4,41,43,39,0.364,19.8,21.7,18.8,15.54,14.2,203,9.2,20.8,0.00208,0.00299,36.1,38.1,22,403,0,44.7,8.76,0.00,0.00
15min,AgWx,beryljct,423,01DEC2018:14:15:00,44.7,14.1,42.1,41.8,41.7,42.2,41.2,43,46,39,0.410,20.7,22.8,18.4,12.96,12.3,209,11,19.1,0.00214,0.00296,36.4,38.1,22,443,0,45.6,8.76,0.00,0.00
15min,AgWx,beryljct,423,01DEC2018:14:30:00,44.8,14.06,41.7,41.5,41.4,41.9,41.0,44,47,43,0.405,21.4,22.9,20.2,12.93,12.6,197,9.3,18.1,0.00208,0.00289,36.7,38.1,22,440,0,45.6,8.75,0.00,0.00
15min,AgWx,beryljct,423,01DEC2018:14:45:00,44.7,14.08,41.4,40.9,41.2,41.7,40.9,44,46,43,0.399,21.2,22.5,19.9,12.69,11.9,205,12,15.7,0.00167,0.00242,36.9,38.1,22,321,0,45.0,8.75,0.00,0.00
15min,AgWx,beryljct,423,01DEC2018:15:00:00,44.0,14.15,40.7,40.0,40.4,40.8,39.9,47,49,45,0.388,21.6,22.5,20.7,12.89,11.4,191,12,16.2,0.00114,0.00181,37.2,38.1,22,178,0,44.3,8.75,0.00,0.00
15min,AgWx,beryljct,423,01DEC2018:15:15:00,43.3,14.16,40.9,41.2,40.4,41.2,39.9,46,49,44,0.427,21.5,23.6,19.8,13.09,9.9,189,10,13.9,0.00122,0.00184,37.5,38.2,22,234,0,45.3,8.75,0.00,0.00
15min,AgWx,beryljct,423,01DEC2018:15:30:00,43.6,13.96,41.6,40.8,41.3,41.8,40.8,47,50,44,0.431,22.4,23.6,21.0,6.05,10.0,194,11,15.0,0.00138,0.00203,37.7,38.2,22,263,0,47.2,8.75,0.00,0.00
15min,AgWx,beryljct,423,01DEC2018:15:45:00,43.5,14.12,41.4,41.6,41.0,41.7,40.6,47,51,44,0.404,22.1,24.0,20.4,9.12,8.7,196,11,15.0,0.00120,0.00178,37.8,38.3,22,238,0,45.8,8.75,0.00,0.00
15min,AgWx,beryljct,423,01DEC2018:16:00:00,43.6,13.51,41.2,40.3,41.0,42.2,40.2,49,53,45,0.425,23.4,24.5,22.1,10.98,9.9,199,7.6,13.8,0.00088,0.00146,38.0,38.3,22,138,0,44.7,8.75,0.00,0.00
15min,AgWx,beryljct,423,01DEC2018:16:15:00,42.7,14.18,40.3,39.7,40.0,40.2,39.7,52,54,50,0.438,23.8,24.5,22.8,9.47,10.3,194,7.8,14.2,0.00066,0.00121,38.1,38.4,22,89,0,42.3,8.75,0.00,0.00
15min,AgWx,beryljct,423,01DEC2018:16:30:00,42.0,14.18,40.1,39.7,39.7,39.9,39.6,52,54,51,0.423,23.8,24.3,23.0,8.94,10.2,196,6.8,14.0,0.00035,0.00041,38.2,38.4,22,99,0,42.2,8.75,0.00,0.00
15min,AgWx,beryljct,423,01DEC2018:16:45:00,41.4,13.32,39.7,38.9,39.5,39.9,38.9,53,55,50,0.443,23.8,24.4,22.8,8.13,9.9,195,8.5,14.1,0.00030,0.00036,38.3,38.5,22,59,0,41.1,8.75,0.00,0.00
15min,AgWx,beryljct,423,01DEC2018:17:00:00,40.4,13.25,38.6,37.9,38.4,38.9,37.9,56,57,54,0.442,23.9,24.2,23.6,7.98,8.9,198,6.7,12.1,0.00022,0.00027,38.4,38.5,22,20,0,38.3,8.75,0.00,0.00
15min,AgWx,beryljct,423,01DEC2018:17:15:00,39.5,13.19,37.9,37.5,37.5,37.9,37.3,59,60,57,0.451,24.5,24.8,24.1,7.147,7.3,210,7.6,9.3,0.00015,0.00019,38.4,38.6,22,9,0,37.6,8.75,0.00,0.00
15min,AgWx,beryljct,423,01DEC2018:17:30:00,38.9,13.16,38.1,37.7,37.7,37.9,37.5,58,60,56,0.442,24.3,24.9,23.8,9.97,9.1,212,5.7,12.0,0.00018,0.00023,38.5,38.6,22,3,0,38.1,8.75,0.00,0.00
15min,AgWx,beryljct,423,01DEC2018:17:45:00,38.6,13.14,37.9,37.6,37.5,37.7,37.3,58,59,57,0.438,24.1,24.4,23.7,7.168,8.5,203,6.4,10.8,0.00017,0.00022,38.5,38.7,22,0,0,37.6,8.76,0.00,0.00
15min,AgWx,beryljct,423,01DEC2018:18:00:00,38.2,13.13,36.9,36.1,36.7,37.6,36.0,62,65,58,0.470,24.8,25.6,23.9,6.357,6.5,188,6.7,8.0,0.00010,0.00014,38.4,38.7,22,0,0,37.2,8.76,0.00,0.00
15min,AgWx,beryljct,423,01DEC2018:18:15:00,37.6,13.11,35.6,34.4,35.4,36.0,34.4,67,70,66,0.471,25.6,25.8,25.3,4.187,5.0,175,6.1,6.8,0.00003,0.00005,38.4,38.8,22,0,0,35.8,8.76,0.00,0.00
15min,AgWx,beryljct,423,01DEC2018:18:30:00,36.3,13.09,33.9,32.5,33.7,34.4,32.3,70,74,69,0.457,25.1,25.7,24.6,5.239,4.6,181,7.3,5.3,0.00000,0.00002,38.4,38.8,22,0,0,35.2,8.76,0.00,0.00
15min,AgWx,beryljct,423,01DEC2018:18:45:00,34.8,13.07,32.2,31.6,31.8,32.6,30.7,75,78,72,0.459,24.7,25.2,24.1,4.889,5.3,178,6.3,6.2,0.00000,0.00002,38.3,38.8,22,0,0,35.4,8.76,0.00,0.00
15min,AgWx,beryljct,423,01DEC2018:19:00:00,33.6,13.06,32.1,31.2,31.7,32.1,31.2,75,78,74,0.458,24.8,25.0,24.6,4.099,4.2,174,6.1,5.4,-0.00003,-0.00002,38.2,38.9,22,0,0,35.7,8.76,0.00,0.00
15min,AgWx,beryljct,423,01DEC2018:19:15:00,32.6,13.03,31.6,31.5,31.1,31.5,30.9,78,79,77,0.466,25.0,25.4,24.7,5.853,4.5,171,15,6.3,-0.00003,-0.00002,38.2,38.9,22,0,0,35.6,8.76,0.00,0.00
15min,AgWx,beryljct,423,01DEC2018:19:30:00,32.6,13.04,32.8,31.7,32.3,32.9,31.6,76,79,75,0.475,25.6,25.9,25.4,3.529,5.5,177,9.7,7.0,-0.00000,0.00001,38.1,38.9,22,0,0,36.1,8.76,0.00,0.00
15min,AgWx,beryljct,423,01DEC2018:19:45:00,32.9,13.03,32.7,32.6,32.1,32.7,31.6,78,79,78,0.487,26.1,26.5,25.9,3.858,4.2,196,15,6.3,-0.00004,-0.00003,38.0,38.9,22,0,0,35.9,8.76,0.00,0.00
15min,AgWx,beryljct,423,01DEC2018:20:00:00,33.3,13.01,33.0,33.2,32.5,33.3,31.9,78,80,75,0.485,26.5,26.7,26.3,3.858,3.8,205,14,5.0,-0.00005,-0.00005,37.9,39.0,22,0,0,35.8,8.77,0.00,0.00
15min,AgWx,beryljct,423,01DEC2018:20:15:00,33.7,13.02,33.5,32.5,33.1,33.3,32.4,76,78,75,0.486,26.4,26.5,26.3,0.417,1.5,229,19,3.4,-0.00013,-0.00017,37.8,39.0,22,0,0,35.5,8.77,0.00,0.00
15min,AgWx,beryljct,423,01DEC2018:20:30:00,33.9,13.01,33.6,32.9,33.1,33.7,32.5,76,78,74,0.480,26.3,26.7,26.0,3.223,1.9,323,12,4.0,-0.00012,-0.00015,37.7,39.0,22,0,0,35.5,8.77,0.00,0.00
15min,AgWx,beryljct,423,01DEC2018:20:45:00,33.8,13,32.6,31.9,32.2,32.9,31.7,77,79,75,0.473,25.9,26.2,25.6,3.42,3.4,336,12,4.6,-0.00006,-0.00006,37.6,39.0,22,0,0,35.4,8.77,0.00,0.00
15min,AgWx,beryljct,423,01DEC2018:21:00:00,33.5,13,32.1,31.9,31.6,31.9,31.0,78,80,76,0.467,25.6,25.9,25.3,3.223,1.3,346,9.8,3.6,-0.00015,-0.00020,37.5,39.0,22,0,0,35.7,8.77,0.00,0.00
15min,AgWx,beryljct,423,01DEC2018:21:15:00,33.0,12.98,32.6,32.1,32.1,32.6,31.5,76,78,75,0.477,25.5,26.0,25.0,1.907,2.7,349,15,4.9,-0.00008,-0.00009,37.5,39.0,22,0,0,35.6,8.77,0.00,0.00
15min,AgWx,beryljct,423,01DEC2018:21:30:00,32.6,12.98,31.9,31.6,31.5,32.0,31.2,79,80,78,0.481,25.8,26.2,25.2,1.447,0.7,8.4,6.6,2.0,-0.00018,-0.00026,37.4,38.9,22,0,0,35.8,8.77,0.00,0.00
15min,AgWx,beryljct,423,01DEC2018:21:45:00,32.3,12.97,31.4,31.1,31.0,31.8,30.3,82,85,80,0.495,26.2,27.0,25.5,1.622,0.7,359,2.9,2.0,-0.00018,-0.00026,37.3,38.9,22,0,0,35.3,8.77,0.00,0.00
15min,AgWx,beryljct,423,01DEC2018:22:00:00,32.6,12.97,32.2,31.9,31.6,32.1,30.9,86,87,84,0.531,27.8,28.6,26.6,14.6,10.4,289,12,18.3,0.00001,0.00002,37.3,38.9,22,0,0,35.4,8.77,0.00,0.00
15min,AgWx,beryljct,423,01DEC2018:22:15:00,33.1,12.95,31.9,31.3,31.6,32.0,31.3,89,92,87,0.546,28.8,29.3,28.6,12.8,13.0,283,9.2,16.8,0.00001,0.00001,37.2,38.9,22,0,0,35.2,8.78,0.01,0.00
15min,AgWx,beryljct,423,01DEC2018:22:30:00,33.2,12.94,31.3,30.8,31.0,31.3,30.7,93,94,92,0.545,29.1,29.3,29.0,12.96,13.1,317,8.4,19.0,-0.00002,-0.00001,37.1,38.9,22,0,0,35.2,8.79,0.01,0.00
15min,AgWx,beryljct,423,01DEC2018:22:45:00,33.3,12.91,30.9,30.5,30.5,30.8,30.3,94,94,94,0.541,29.0,29.2,28.8,4.187,9.9,318,7.1,15.7,-0.00004,-0.00004,37.1,38.9,22,0,99,35.5,8.80,0.01,0.00
15min,AgWx,beryljct,423,01DEC2018:23:00:00,33.1,12.94,30.8,30.2,30.3,30.5,30.2,95,95,94,0.539,29.0,29.1,28.8,1.907,2.1,325,34,5.6,-0.00014,-0.00018,37.0,38.9,22,0,40,35.8,8.80,0.00,0.00
15min,AgWx,beryljct,423,01DEC2018:23:15:00,32.9,12.91,30.6,30.3,30.1,30.3,29.9,95,95,94,0.536,28.7,28.9,28.5,6.379,5.8,186,15,8.1,-0.00007,-0.00008,36.9,38.8,22,0,0,35.7,8.80,0.00,0.00
15min,AgWx,beryljct,423,01DEC2018:23:30:00,32.6,12.89,30.8,30.2,30.2,30.3,30.0,92,94,91,0.516,28.3,28.7,27.9,4.604,6.7,172,6.8,8.4,-0.00006,-0.00006,36.9,38.8,22,0,0,35.7,8.80,0.00,0.00
15min,AgWx,bigpiney,439,01DEC2018:00:00:00,16.2,12.71,12.3,10.9,11.9,13.3,9.5,86,88,81,0.216,8.6,10.4,4.8,2.916,3.7,186,34,6.8,-0.00005,-0.00005,32.9,34.8,46,0,0,0.0,.,0.00,0.00
15min,AgWx,bigpiney,439,01DEC2018:00:15:00,15.7,12.68,12.2,11.9,11.6,12.2,10.6,87,89,86,0.228,8.6,9.3,7.3,5.042,4.6,231,10,6.1,-0.00004,-0.00004,32.9,34.7,46,0,0,0.0,.,0.00,0.00
15min,AgWx,bigpiney,439,01DEC2018:00:30:00,15.3,12.68,11.2,9.3,11.0,12.3,8.5,86,88,83,0.205,7.7,9.3,4.5,3.968,5.2,270,36,6.7,-0.00003,-0.00003,32.9,34.7,46,0,0,0.0,.,0.00,0.00
15min,AgWx,bigpiney,439,01DEC2018:00:45:00,14.8,12.66,10.5,11.4,9.9,11.4,9.1,89,91,86,0.231,7.2,9.2,5.8,4.384,4.9,309,18,6.2,-0.00004,-0.00004,32.9,34.8,46,0,0,0.0,.,0.00,0.00
15min,AgWx,bigpiney,439,01DEC2018:01:00:00,14.3,12.66,11.6,10.8,11.2,12.8,9.5,89,92,82,0.220,8.4,10.8,5.2,0,1.7,162,70,5.0,-0.00009,-0.00011,32.9,34.8,46,0,0,0.0,.,0.00,0.00
15min,AgWx,bigpiney,439,01DEC2018:01:15:00,14.0,12.66,9.2,8.7,9.0,12.1,7.2,87,91,82,0.202,6.0,9.9,3.1,2.828,3.2,340,43,5.2,-0.00005,-0.00006,32.9,34.8,46,0,0,0.0,.,0.00,0.00
15min,AgWx,bigpiney,439,01DEC2018:01:30:00,13.5,12.65,10.0,10.1,9.3,11.8,7.8,89,93,85,0.210,6.6,10.1,4.2,4.077,2.4,242,36,4.6,-0.00007,-0.00008,32.9,34.8,46,0,0,0.0,.,0.00,0.00
15min,AgWx,bigpiney,439,01DEC2018:01:45:00,13.0,12.63,11.2,10.9,10.5,13.1,8.8,89,93,83,0.225,7.8,11.4,5.3,4.516,2.9,193,17,5.3,-0.00006,-0.00007,32.9,34.8,46,0,0,0.0,.,0.00,0.00
15min,AgWx,bigpiney,439,01DEC2018:02:00:00,12.8,12.63,11.5,10.2,11.1,13.7,9.8,87,92,83,0.207,8.0,11.8,6.2,5.239,4.9,225,11,5.7,-0.00003,-0.00004,32.9,34.8,46,0,0,0.0,.,0.00,0.00
15min,AgWx,bigpiney,439,01DEC2018:02:15:00,12.7,12.62,9.9,7.3,9.8,12.1,7.3,86,92,83,0.180,6.5,9.9,3.7,5.13,4.5,297,93,6.8,-0.00003,-0.00004,32.9,34.8,46,0,0,0.0,.,0.00,0.00
15min,AgWx,bigpiney,439,01DEC2018:02:30:00,12.5,12.59,10.2,11.2,9.3,11.4,6.2,89,93,84,0.225,6.7,9.4,2.7,1.973,2.1,25,31,6.4,-0.00007,-0.00009,32.9,34.7,46,0,0,0.0,.,0.00,0.00
15min,AgWx,bigpiney,439,01DEC2018:02:45:00,12.3,12.6,10.3,6.3,10.3,12.4,6.3,87,90,82,0.172,7.1,9.6,2.4,1.885,2.9,0.5,23,4.7,-0.00006,-0.00006,32.9,34.7,46,0,0,0.0,.,0.00,0.00
15min,AgWx,bigpiney,439,01DEC2018:03:00:00,12.0,12.59,8.3,8.8,7.6,9.2,5.8,87,89,85,0.198,4.6,6.5,2.1,2.148,3.7,176,33,6.8,-0.00004,-0.00004,32.9,34.7,46,0,0,0.0,.,0.00,0.00
15min,AgWx,bigpiney,439,01DEC2018:03:15:00,11.7,12.58,11.1,11.4,10.2,11.4,8.5,88,90,86,0.223,7.4,8.4,5.4,5.042,2.1,225,23,5.0,-0.00007,-0.00009,32.9,34.8,46,0,0,0.0,.,0.00,0.00
15min,AgWx,bigpiney,439,01DEC2018:03:30:00,11.4,12.56,10.0,9.4,9.7,11.3,8.5,86,89,83,0.196,6.4,8.4,5.0,5.744,5.3,226,7.5,6.5,-0.00003,-0.00003,32.9,34.7,46,0,0,0.0,.,0.00,0.00
15min,AgWx,bigpiney,439,01DEC2018:03:45:00,11.3,12.56,12.8,12.1,12.1,13.4,9.5,83,87,81,0.217,7.9,9.4,5.7,6.27,5.3,236,4.6,6.4,-0.00002,-0.00002,32.9,34.8,46,0,0,0.0,.,0.00,0.00
15min,AgWx,bigpiney,439,01DEC2018:04:00:00,11.7,12.56,11.3,9.2,11.1,12.5,9.2,83,84,81,0.194,6.9,8.3,5.3,5.261,3.8,173,68,6.4,-0.00004,-0.00004,32.9,34.8,46,0,0,0.0,.,0.00,0.00
15min,AgWx,bigpiney,439,01DEC2018:04:15:00,12.1,12.54,10.3,9.6,9.8,11.1,8.9,86,88,83,0.197,6.5,7.8,5.1,3.858,3.6,154,49,5.3,-0.00004,-0.00005,32.9,34.7,46,0,0,0.0,.,0.00,0.00
15min,AgWx,bigpiney,439,01DEC2018:04:30:00,12.3,12.55,9.1,7.9,8.8,10.2,7.9,85,86,84,0.183,5.2,7.0,4.0,3.99,2.7,48,24,5.7,-0.00005,-0.00006,32.9,34.8,46,0,0,0.0,.,0.00,0.00
15min,AgWx,bigpiney,439,01DEC2018:04:45:00,12.2,12.54,7.9,7.5,7.5,7.9,7.3,84,85,84,0.182,3.8,4.1,3.6,1.688,1.1,35,53,3.4,-0.00009,-0.00011,32.9,34.7,46,0,0,0.0,.,0.00,0.00
15min,AgWx,bigpiney,439,01DEC2018:05:00:00,11.8,12.53,7.9,8.4,7.2,8.4,6.3,85,87,83,0.190,3.7,5.0,2.3,1.425,2.8,238,23,5.8,-0.00005,-0.00006,32.9,34.7,46,0,0,0.0,.,0.00,0.00
15min,AgWx,bigpiney,439,01DEC2018:05:15:00,11.4,12.52,8.7,8.3,8.3,8.9,7.6,84,87,83,0.184,4.5,5.5,3.6,4.713,4.6,250,4.4,5.5,-0.00003,-0.00003,32.9,34.7,46,0,0,0.0,.,0.00,0.00
15min,AgWx,bigpiney,439,01DEC2018:05:30:00,11.0,12.52,9.0,7.9,8.5,9.2,7.7,83,84,82,0.178,4.5,5.3,3.4,2.894,3.9,251,8.6,5.3,-0.00003,-0.00003,32.9,34.7,46,0,0,0.0,.,0.00,0.00
15min,AgWx,bigpiney,439,01DEC2018:05:45:00,10.9,12.52,10.9,12.7,9.9,12.7,7.5,83,86,80,0.216,5.8,7.8,3.2,3.771,3.3,252,16,4.8,-0.00005,-0.00005,32.9,34.7,46,0,0,0.0,.,0.00,0.00
15min,AgWx,bigpiney,439,01DEC2018:06:00:00,11.0,12.51,12.2,11.2,11.9,13.8,9.0,78,82,74,0.201,6.4,8.0,3.2,1.228,2.9,242,30,4.1,-0.00005,-0.00005,32.9,34.8,46,0,0,0.0,.,0.00,0.00
15min,AgWx,bigpiney,439,01DEC2018:06:15:00,10.8,12.51,9.0,7.2,9.0,11.0,6.9,80,84,77,0.175,4.1,5.9,2.4,2.938,1.6,217,18,3.3,-0.00007,-0.00009,32.9,34.7,46,0,0,0.0,.,0.00,0.00
15min,AgWx,bigpiney,439,01DEC2018:06:30:00,10.2,12.49,7.9,5.8,7.6,8.8,5.8,82,84,80,0.161,3.3,4.7,1.3,3.31,4.5,239,7.3,5.9,-0.00003,-0.00002,32.9,34.7,46,0,0,0.0,.,0.00,0.00
15min,AgWx,bigpiney,439,01DEC2018:06:45:00,9.6,12.5,6.6,3.4,6.3,10.0,3.4,81,87,78,0.144,1.7,6.2,-1.4,2.192,3.6,231,22,6.1,-0.00003,-0.00003,32.9,34.7,46,0,0,0.0,.,0.00,0.00
15min,AgWx,bigpiney,439,01DEC2018:07:00:00,8.8,12.5,5.4,3.9,4.9,6.0,3.2,83,86,79,0.147,0.7,2.6,-1.3,1.359,1.7,232,55,4.8,-0.00006,-0.00008,32.9,34.8,46,0,0,0.0,.,0.00,0.00
15min,AgWx,bigpiney,439,01DEC2018:07:15:00,8.2,12.49,7.4,7.9,6.4,9.0,3.9,83,86,81,0.176,2.4,5.2,-0.7,2.609,3.9,261,30,6.1,-0.00003,-0.00003,32.9,34.8,46,0,0,0.0,.,0.00,0.00
15min,AgWx,bigpiney,439,01DEC2018:07:30:00,7.9,12.51,8.9,8.3,8.4,9.6,7.1,81,83,78,0.180,3.8,5.1,2.3,0.263,1.6,4.1,40,3.5,-0.00007,-0.00009,32.9,34.7,46,2,0,0.0,.,0.00,0.00
15min,AgWx,bigpiney,439,01DEC2018:07:45:00,7.8,14.99,9.8,9.4,9.1,10.4,8.1,81,83,78,0.182,4.5,5.5,3.4,0,1.0,170,24,3.4,-0.00008,-0.00011,32.9,34.8,46,12,0,0.0,.,0.00,0.00
15min,AgWx,bigpiney,439,01DEC2018:08:00:00,8.0,14.98,7.5,5.9,7.4,9.6,5.8,79,82,77,0.164,2.4,4.5,0.8,1.951,2.0,226,48,5.4,-0.00002,0.00000,32.9,34.8,46,71,0,0.0,.,0.00,0.00
15min,AgWx,bigpiney,439,01DEC2018:08:15:00,9.1,15.02,9.0,10.5,8.3,10.6,5.5,84,85,82,0.204,4.3,6.7,1.1,2.477,2.3,273,24,6.5,0.00009,0.00011,32.9,34.7,46,120,0,0.0,.,0.00,0.00
15min,AgWx,bigpiney,439,01DEC2018:08:30:00,10.8,15,10.6,10.6,10.1,10.6,9.6,83,83,82,0.205,5.9,6.5,5.3,2.368,1.5,309,68,3.3,0.00011,0.00014,32.9,34.7,46,131,0,0.0,.,0.00,0.00
15min,AgWx,bigpiney,439,01DEC2018:08:45:00,12.7,14.98,12.0,13.6,11.4,13.6,10.1,83,84,81,0.229,7.1,9.2,6.0,1.381,1.0,310,40,3.4,0.00022,0.00025,32.9,34.8,46,174,0,0.0,.,0.00,0.00